Hourly Data Report for March 16, 2003

SHERBROOKE A
QUEBEC

45°26'00.000" N
71°41'00.000" W
241.40 m
7028124
71610
YSC

Download Data

Hourly Data (March 2003)
Hourly Data Report for March 16, 2003
TIME
LST
Temp Definition
°C
Dew Point Definition
°C
Rel Hum Definition
%
Precip. Amount Definition
mm

Wind Dir Definition
10's deg

Wind Spd Definition
km/h
Visibility Definition
km
Stn Press Definition
kPa
Hmdx Definition


Wind Chill Definition


Weather Definition


00:00 -9.3 -13.5 71   8 7 15.0 98.91   -13  
01:00 -12.5 -15.9 76     0 15.0 98.93      
02:00 -12.4 -15.5 78   8 6 15.0 98.91   -16  
03:00 -11.1 -14.5 76   9 9 15.0 98.85   -16  
04:00 -11.8 -15.4 75   9 6 15.0 98.85   -16  
05:00 -13.1 -16.3 77   9 6 15.0 98.86   -17  
06:00 -13.3 -16.6 76   8 7 15.0 98.88   -18  
07:00 -11.6 -15.2 75   9 7 15.0 98.89   -16  
08:00 -8.5 -13.8 66   7 7 24.1 98.87   -12 Mainly Clear
09:00 -3.9 -11.4 56   9 6 24.1 98.84   -7 Mainly Clear
10:00 1.0 -9.7 45   8 4 24.1 98.78     Mainly Clear
11:00 5.8 -8.1 36     0 24.1 98.74     Mainly Clear
12:00 7.2 -6.8 36   17 4 24.1 98.60     Mainly Clear
13:00 8.6 -5.8 36   21 6 24.1 98.51     Mostly Cloudy
14:00 8.6 -5.3 37   23 11 24.1 98.42     Mostly Cloudy
15:00 10.4 -5.7 32   19 9 24.1 98.31     Mostly Cloudy
16:00 11.0 -5.9 30   19 7 24.1 98.22     Mainly Clear
17:00 11.1 -5.8 30   18 7 24.1 98.13     Mainly Clear
18:00 9.8 -5.2 34   20 11 15.0 98.06      
19:00 8.7 -5.3 37   21 6 15.0 98.04      
20:00 7.4 -4.7 42   22 4 15.0 98.05      
21:00 2.3 -4.7 60   10 4 15.0 98.06      
22:00 1.0 -5.4 62   17 4 15.0 98.08      
23:00 -0.5 -5.6 68   9 4 15.0 98.05   -2  

Notes on Data Quality.

Legend

  • E = Estimated
  • M = Missing
  • NA = Not Available*
  • [empty] = Indicates an unobserved value
Date modified: